Showing default

NOVASAR 1, 43619

Orbit data source: Space-Track

NOVASAR 1, 43619 is a payload satellite owned by SSTL (Astrium) (UK) in SSO that was launched on Sun, 16 Sep 2018 UTC via a PSLV launch vehicle from the Sirharikota (SRI). Payload-class satellites include a variety of spacecraft equipped with specific instruments for various scientific and technological missions. These include communications satellites like Starlink; space stations such as the ISS; scientific satellites like the Hubble; Earth observation satellites from companies like Planet Labs, Umbra, and HawkEye 360; GPS; miniature CubeSats for education and research; and military/defense satellites.

Loading next visibility...
Identifier
43619, 2018-071B
Orbit
SSO
Last TLE update
5 hours ago
Origin
Manufacturer
SSTL (Astrium)
Mission
Operational Commercial Imaging
Bus & Motor
NOVASAR-S, XE
Mass
445 kg wet, 400 kg dry
Launch date (UTC)
2018-09-16 (7 years ago)
Launch vehicle
PSLV
Launch site
Sirharikota (SRI)
Object type
Payload
Rocket body
Debris
Shape & HBR
Tri Box, 3 m
Radar Cross Section
3.500 m², Large (>1 m²)

Expand to show TLE details & history

TLE from 5 hours ago
0 NOVASAR 1
1 43619U 18071B   25192.17682157 -.00000207  00000-0 -13609-4 0  9990
2 43619  97.5553  72.4513 0001448 141.9528 218.1796 14.95983883371944
Epoch: 2025-07-11T04:14Z
TLE epoch observation values (Epoch: 2025-07-11T04:14:37.383Z)
Latitude
-0.00005°
Longitude
79.46304°
Altitude
583.166 km
Speed
7.568 km/s
True Right ascension
04h 49m 48s
True Declination
0° 00' 00"
Sunlit
Object was in daylight at epoch
Visualization orbit readout
Latitude
82.29098°
Longitude
-23.29747°
Altitude
592.2 km
Speed
7.571 km/s
Apparent Right ascension
09h 42m 44s
Apparent Declination
35° 23' 18"
Sunlit
Object is in daylight
Visualization observer readout
Local Sidereal Time
21:45:48
Azimuth
0.646° NNE
Elevation
-14.692°
Doppler factor
1
Orbital elements
Apogee altitude
577.332 km
Perigee altitude
575.318 km
Semi-major axis
6,954.462 km
Eccentricity
0.00014
Inclination
97.5553°
RAAN
72.4513°
Arg. of periapsis
141.9528°
True anomaly
Unknown
Mean anomaly
218.1796°
Eccentric anomaly
Unknown
Mean motion
3.74238 °/min
Orbital period
96.2 mins
BSTAR
-0.000013609
Loading maneuver chart data...
Loading SW <> Apogee altitude chart data...
Loading historical data...
Loading historical data...
Loading historical data...
Loading historical data...
Loading historical data...
Loading historical data...
Loading historical data...
Other satellites on launch #71 in the year 2018 (2018-09-16 UTC)

NOVASAR 1 Visibility forecast

Observer location: undefined°, undefined°

Span
Click to sort rows by Start time (UTC) header in descending order
Start Az.
Max El. time (UTC)
Max El. Az.
Max El.
End time (UTC)
End Az.
6 mins2025-07-11 15:37:05.233Z137.425° SSE2025-07-11 15:40:05.233Z68.03° E33.422°2025-07-11 15:43:05.233Z6.693° NNE
6 mins2025-07-12 04:54:05.233Z13.692° NNE2025-07-12 04:57:05.233Z180.034° SSW43.889°2025-07-12 05:00:05.233Z191.673° SSW
|